Precipitable_Water
0.52 0.52 0.51 0.50 0.49 0.48 0.47 0.47 0.46 0.46 0.46 0.46 0.45 0.45 0.44 0.44 0.42 0.42 0.42 0.42 0.41 0.40 0.41 0.40 0.40 0.40 0.39 0.38 0.39 0.40 0.40 0.29 0.24 0.21 0.20 0.21 0.29 0.36 0.39 0.45 0.47 0.48 0.48 0.43 0.41 0.38 0.33 0.33 0.32 0.37 0.36 0.34 0.33 0.31 0.36 0.37 0.39 0.35 0.23 0.18 0.14 0.15 0.14 0.17 0.15 0.17 0.20 0.17 0.19 0.21 0.23 0.22 0.19 0.23 0.25 0.27 0.24 0.23 0.23 0.22 0.24 0.26 0.25 0.26 0.27 0.30 0.33 0.36
0.52 0.51 0.51 0.50 0.49 0.49 0.48 0.47 0.47 0.47 0.46 0.46 0.46 0.45 0.45 0.44 0.44 0.43 0.44 0.44 0.44 0.43 0.43 0.42 0.41 0.41 0.41 0.41 0.43 0.44 0.39 0.30 0.24 0.23 0.18 0.31 0.34 0.34 0.39 0.44 0.49 0.49 0.46 0.38 0.35 0.35 0.31 0.30 0.33 0.35 0.32 0.28 0.39 0.28 0.38 0.31 0.40 0.27 0.23 0.19 0.13 0.16 0.16 0.20 0.19 0.20 0.19 0.18 0.20 0.21 0.23 0.22 0.20 0.22 0.24 0.20 0.19 0.20 0.19 0.19 0.22 0.22 0.24 0.26 0.28 0.30 0.31 0.33
0.52 0.51 0.51 0.50 0.50 0.49 0.48 0.48 0.47 0.47 0.46 0.45 0.45 0.46 0.45 0.45 0.45 0.45 0.45 0.45 0.45 0.45 0.45 0.44 0.44 0.42 0.41 0.43 0.44 0.45 0.37 0.28 0.25 0.20 0.31 0.43 0.41 0.39 0.39 0.43 0.46 0.46 0.40 0.36 0.37 0.35 0.32 0.31 0.34 0.33 0.32 0.28 0.33 0.27 0.33 0.29 0.33 0.31 0.24 0.17 0.16 0.20 0.20 0.21 0.22 0.21 0.23 0.23 0.22 0.22 0.23 0.22 0.22 0.22 0.25 0.19 0.18 0.19 0.16 0.16 0.19 0.19 0.19 0.21 0.25 0.28 0.29 0.31
0.52 0.52 0.51 0.51 0.50 0.49 0.49 0.49 0.48 0.47 0.47 0.46 0.45 0.45 0.45 0.45 0.45 0.45 0.45 0.45 0.45 0.45 0.45 0.45 0.44 0.43 0.43 0.44 0.47 0.43 0.36 0.23 0.16 0.28 0.33 0.46 0.47 0.43 0.43 0.45 0.46 0.44 0.41 0.39 0.39 0.38 0.38 0.36 0.34 0.33 0.30 0.27 0.29 0.34 0.27 0.31 0.25 0.29 0.25 0.17 0.17 0.21 0.19 0.20 0.24 0.25 0.26 0.27 0.24 0.23 0.24 0.21 0.23 0.24 0.22 0.20 0.18 0.16 0.16 0.19 0.18 0.18 0.19 0.21 0.23 0.26 0.28 0.28
0.53 0.52 0.52 0.51 0.51 0.51 0.50 0.50 0.49 0.49 0.48 0.47 0.47 0.46 0.46 0.46 0.46 0.45 0.45 0.45 0.45 0.44 0.45 0.45 0.44 0.43 0.44 0.47 0.45 0.44 0.28 0.15 0.21 0.32 0.39 0.45 0.48 0.47 0.48 0.47 0.47 0.46 0.41 0.38 0.37 0.39 0.38 0.35 0.34 0.32 0.29 0.24 0.27 0.29 0.27 0.31 0.32 0.29 0.21 0.22 0.22 0.23 0.19 0.21 0.25 0.27 0.27 0.27 0.25 0.24 0.21 0.21 0.25 0.23 0.21 0.21 0.17 0.14 0.15 0.19 0.21 0.21 0.22 0.22 0.23 0.25 0.27 0.27
0.54 0.54 0.54 0.53 0.53 0.52 0.52 0.51 0.51 0.50 0.49 0.48 0.48 0.48 0.48 0.47 0.47 0.46 0.46 0.46 0.45 0.44 0.44 0.44 0.44 0.42 0.42 0.46 0.44 0.36 0.23 0.11 0.28 0.30 0.44 0.48 0.51 0.50 0.51 0.50 0.47 0.44 0.41 0.36 0.33 0.36 0.36 0.34 0.32 0.27 0.25 0.24 0.23 0.21 0.25 0.29 0.33 0.20 0.23 0.24 0.25 0.25 0.21 0.22 0.24 0.26 0.27 0.25 0.24 0.22 0.24 0.25 0.23 0.21 0.22 0.21 0.19 0.18 0.19 0.22 0.23 0.23 0.24 0.24 0.25 0.25 0.25 0.26
0.55 0.54 0.55 0.55 0.54 0.54 0.54 0.53 0.52 0.51 0.51 0.50 0.49 0.49 0.49 0.49 0.48 0.48 0.47 0.46 0.46 0.47 0.45 0.45 0.43 0.44 0.41 0.43 0.45 0.31 0.23 0.21 0.25 0.35 0.42 0.48 0.50 0.50 0.52 0.52 0.46 0.40 0.36 0.31 0.31 0.30 0.32 0.30 0.30 0.26 0.24 0.23 0.24 0.23 0.25 0.27 0.31 0.25 0.18 0.23 0.22 0.26 0.23 0.25 0.25 0.27 0.27 0.26 0.24 0.27 0.27 0.21 0.21 0.18 0.21 0.20 0.20 0.21 0.20 0.24 0.24 0.24 0.25 0.25 0.24 0.24 0.24 0.24
0.56 0.56 0.56 0.56 0.56 0.55 0.56 0.55 0.53 0.53 0.52 0.50 0.50 0.50 0.50 0.50 0.49 0.49 0.49 0.49 0.48 0.47 0.48 0.46 0.46 0.45 0.46 0.42 0.27 0.24 0.25 0.21 0.28 0.40 0.47 0.49 0.49 0.51 0.49 0.48 0.42 0.38 0.31 0.27 0.27 0.25 0.28 0.27 0.25 0.28 0.24 0.20 0.22 0.23 0.26 0.25 0.27 0.23 0.20 0.23 0.23 0.25 0.24 0.25 0.26 0.26 0.27 0.26 0.28 0.26 0.22 0.19 0.21 0.20 0.22 0.18 0.19 0.21 0.22 0.24 0.24 0.24 0.25 0.24 0.24 0.23 0.24 0.24
0.60 0.59 0.59 0.59 0.58 0.57 0.58 0.57 0.56 0.55 0.54 0.52 0.52 0.52 0.51 0.52 0.51 0.50 0.51 0.51 0.51 0.49 0.49 0.50 0.48 0.47 0.51 0.35 0.26 0.22 0.20 0.29 0.37 0.43 0.48 0.46 0.45 0.46 0.45 0.35 0.41 0.34 0.31 0.31 0.29 0.27 0.25 0.23 0.25 0.26 0.20 0.22 0.26 0.23 0.25 0.23 0.19 0.24 0.22 0.24 0.24 0.23 0.24 0.24 0.24 0.24 0.25 0.25 0.25 0.23 0.20 0.21 0.22 0.25 0.19 0.18 0.19 0.20 0.23 0.23 0.23 0.24 0.24 0.23 0.23 0.24 0.24 0.24
0.66 0.64 0.63 0.62 0.60 0.60 0.60 0.59 0.58 0.58 0.56 0.56 0.55 0.56 0.55 0.56 0.56 0.56 0.55 0.56 0.54 0.53 0.50 0.52 0.51 0.51 0.39 0.30 0.28 0.20 0.24 0.39 0.46 0.44 0.45 0.46 0.45 0.42 0.40 0.39 0.38 0.35 0.30 0.30 0.30 0.27 0.23 0.23 0.24 0.29 0.29 0.26 0.27 0.23 0.26 0.24 0.21 0.27 0.25 0.24 0.23 0.22 0.22 0.22 0.21 0.22 0.24 0.23 0.24 0.21 0.20 0.19 0.23 0.22 0.15 0.17 0.20 0.21 0.22 0.22 0.23 0.23 0.22 0.23 0.24 0.24 0.24 0.24
0.77 0.75 0.74 0.71 0.68 0.67 0.66 0.64 0.63 0.62 0.61 0.61 0.62 0.62 0.63 0.62 0.62 0.63 0.63 0.62 0.62 0.58 0.57 0.56 0.60 0.50 0.35 0.35 0.25 0.21 0.39 0.39 0.44 0.45 0.45 0.44 0.41 0.38 0.36 0.38 0.40 0.35 0.32 0.30 0.28 0.29 0.29 0.29 0.31 0.31 0.29 0.24 0.26 0.24 0.25 0.24 0.28 0.26 0.25 0.24 0.22 0.23 0.23 0.22 0.22 0.22 0.23 0.20 0.23 0.22 0.20 0.21 0.21 0.20 0.15 0.16 0.18 0.21 0.20 0.21 0.21 0.22 0.22 0.22 0.23 0.24 0.25 0.24
0.89 0.87 0.86 0.83 0.81 0.79 0.77 0.74 0.73 0.71 0.69 0.68 0.67 0.66 0.66 0.66 0.66 0.66 0.66 0.66 0.64 0.63 0.61 0.60 0.59 0.56 0.45 0.38 0.33 0.31 0.43 0.41 0.47 0.46 0.45 0.43 0.39 0.40 0.41 0.41 0.41 0.37 0.33 0.29 0.30 0.32 0.32 0.32 0.34 0.30 0.22 0.29 0.21 0.26 0.24 0.28 0.26 0.25 0.25 0.20 0.19 0.22 0.20 0.19 0.20 0.20 0.22 0.20 0.22 0.23 0.20 0.17 0.17 0.14 0.15 0.17 0.19 0.20 0.21 0.20 0.20 0.21 0.22 0.23 0.23 0.23 0.23 0.23
0.97 0.95 0.94 0.91 0.89 0.87 0.84 0.83 0.82 0.78 0.75 0.71 0.67 0.65 0.64 0.64 0.64 0.66 0.66 0.66 0.66 0.65 0.64 0.65 0.58 0.54 0.41 0.32 0.36 0.44 0.50 0.54 0.51 0.51 0.49 0.48 0.45 0.47 0.45 0.44 0.43 0.41 0.37 0.33 0.30 0.33 0.34 0.34 0.33 0.28 0.31 0.28 0.25 0.21 0.27 0.30 0.28 0.27 0.25 0.22 0.19 0.18 0.18 0.18 0.21 0.21 0.20 0.20 0.23 0.22 0.13 0.13 0.14 0.15 0.16 0.18 0.19 0.20 0.20 0.20 0.20 0.21 0.22 0.22 0.22 0.22 0.22 0.23
1.03 1.01 0.99 0.97 0.94 0.91 0.89 0.87 0.86 0.84 0.80 0.76 0.72 0.67 0.64 0.62 0.63 0.64 0.65 0.64 0.68 0.66 0.67 0.65 0.63 0.49 0.38 0.32 0.39 0.48 0.54 0.55 0.54 0.50 0.48 0.52 0.46 0.43 0.47 0.47 0.47 0.45 0.45 0.39 0.39 0.41 0.39 0.40 0.35 0.32 0.35 0.29 0.26 0.35 0.28 0.28 0.29 0.23 0.24 0.25 0.20 0.19 0.17 0.21 0.21 0.22 0.19 0.22 0.22 0.22 0.13 0.14 0.14 0.15 0.16 0.18 0.20 0.19 0.18 0.18 0.19 0.20 0.21 0.22 0.22 0.22 0.22 0.21
0.97 0.97 0.99 1.01 1.01 1.00 0.98 0.96 0.94 0.90 0.86 0.82 0.80 0.77 0.73 0.68 0.66 0.67 0.68 0.67 0.67 0.68 0.64 0.67 0.59 0.43 0.33 0.33 0.43 0.51 0.55 0.54 0.46 0.46 0.51 0.47 0.45 0.43 0.44 0.48 0.45 0.45 0.45 0.44 0.41 0.43 0.42 0.40 0.36 0.30 0.27 0.32 0.32 0.28 0.25 0.25 0.25 0.25 0.22 0.19 0.22 0.19 0.18 0.20 0.22 0.22 0.19 0.22 0.25 0.23 0.17 0.16 0.17 0.17 0.18 0.19 0.20 0.20 0.18 0.18 0.18 0.19 0.19 0.21 0.21 0.22 0.22 0.22
0.93 0.91 0.90 0.92 0.93 0.95 0.98 0.99 0.98 0.97 0.97 0.94 0.91 0.88 0.84 0.83 0.81 0.81 0.78 0.76 0.74 0.71 0.69 0.49 0.49 0.41 0.32 0.29 0.39 0.58 0.51 0.42 0.41 0.49 0.54 0.52 0.49 0.44 0.48 0.48 0.49 0.48 0.47 0.44 0.47 0.44 0.41 0.38 0.31 0.31 0.29 0.30 0.27 0.24 0.24 0.23 0.22 0.25 0.22 0.18 0.18 0.19 0.18 0.19 0.21 0.24 0.25 0.25 0.27 0.23 0.17 0.19 0.19 0.21 0.21 0.22 0.20 0.20 0.18 0.18 0.18 0.18 0.19 0.20 0.21 0.21 0.22 0.21
0.95 0.93 0.91 0.90 0.91 0.90 0.91 0.92 0.92 0.92 0.94 0.91 0.88 0.82 0.84 0.87 0.86 0.85 0.86 0.86 0.84 0.81 0.68 0.53 0.57 0.52 0.29 0.39 0.50 0.38 0.37 0.42 0.52 0.49 0.51 0.54 0.50 0.48 0.47 0.46 0.44 0.45 0.47 0.47 0.45 0.42 0.39 0.33 0.35 0.32 0.32 0.26 0.27 0.26 0.22 0.20 0.19 0.20 0.22 0.18 0.19 0.18 0.19 0.18 0.22 0.24 0.25 0.24 0.22 0.26 0.22 0.21 0.21 0.23 0.23 0.24 0.23 0.21 0.19 0.18 0.19 0.19 0.19 0.20 0.21 0.21 0.21 0.21
0.97 0.95 0.95 0.95 0.94 0.94 0.93 0.91 0.89 0.85 0.85 0.81 0.75 0.72 0.73 0.77 0.80 0.77 0.75 0.76 0.79 0.74 0.75 0.76 0.66 0.52 0.44 0.50 0.37 0.36 0.46 0.41 0.43 0.46 0.48 0.53 0.53 0.50 0.46 0.42 0.43 0.42 0.42 0.39 0.43 0.36 0.38 0.30 0.33 0.24 0.26 0.25 0.25 0.24 0.20 0.16 0.17 0.16 0.17 0.17 0.18 0.20 0.21 0.19 0.18 0.21 0.22 0.23 0.22 0.24 0.24 0.23 0.24 0.25 0.25 0.26 0.26 0.23 0.22 0.21 0.20 0.19 0.19 0.20 0.20 0.20 0.20 0.20
1.00 0.99 0.98 0.98 0.98 0.97 0.97 0.97 0.94 0.93 0.90 0.82 0.76 0.78 0.81 0.82 0.78 0.73 0.63 0.66 0.55 0.48 0.42 0.47 0.47 0.37 0.34 0.42 0.51 0.53 0.56 0.59 0.59 0.53 0.47 0.48 0.49 0.48 0.46 0.46 0.43 0.40 0.35 0.32 0.32 0.34 0.36 0.32 0.33 0.27 0.22 0.23 0.23 0.23 0.20 0.20 0.20 0.19 0.20 0.19 0.19 0.18 0.18 0.19 0.21 0.24 0.23 0.20 0.21 0.23 0.21 0.22 0.24 0.25 0.27 0.28 0.29 0.26 0.24 0.24 0.24 0.23 0.22 0.21 0.21 0.20 0.20 0.20
1.04 1.03 1.02 1.03 1.03 1.01 1.02 1.01 1.00 0.98 0.95 0.83 0.73 0.70 0.70 0.54 0.54 0.53 0.64 0.63 0.55 0.50 0.49 0.49 0.53 0.50 0.50 0.50 0.51 0.58 0.68 0.66 0.52 0.56 0.59 0.62 0.57 0.51 0.46 0.44 0.40 0.40 0.34 0.29 0.32 0.33 0.36 0.26 0.24 0.24 0.24 0.25 0.25 0.25 0.24 0.24 0.24 0.23 0.23 0.21 0.20 0.20 0.20 0.22 0.23 0.23 0.25 0.22 0.21 0.22 0.23 0.23 0.24 0.26 0.27 0.29 0.30 0.29 0.29 0.27 0.26 0.25 0.24 0.23 0.22 0.21 0.20 0.20
1.09 1.06 1.06 1.07 1.07 1.06 1.04 1.04 1.04 1.03 0.98 0.85 0.78 0.64 0.53 0.53 0.48 0.46 0.53 0.54 0.58 0.59 0.55 0.54 0.53 0.49 0.46 0.48 0.50 0.49 0.45 0.47 0.53 0.52 0.56 0.67 0.60 0.53 0.47 0.47 0.41 0.35 0.36 0.36 0.32 0.38 0.34 0.26 0.26 0.27 0.28 0.28 0.28 0.28 0.28 0.27 0.27 0.25 0.24 0.23 0.22 0.23 0.20 0.23 0.23 0.24 0.26 0.23 0.21 0.24 0.23 0.23 0.25 0.26 0.27 0.29 0.29 0.28 0.29 0.28 0.27 0.26 0.25 0.24 0.23 0.22 0.21 0.20
1.16 1.12 1.10 1.10 1.10 1.08 1.06 1.05 1.05 1.04 0.98 0.87 0.79 0.67 0.66 0.64 0.70 0.69 0.59 0.46 0.53 0.54 0.52 0.50 0.51 0.46 0.52 0.52 0.56 0.55 0.51 0.42 0.41 0.48 0.57 0.57 0.52 0.43 0.43 0.43 0.39 0.34 0.39 0.38 0.36 0.32 0.28 0.25 0.27 0.30 0.32 0.32 0.31 0.31 0.30 0.28 0.27 0.27 0.25 0.24 0.23 0.23 0.25 0.25 0.26 0.26 0.26 0.25 0.21 0.25 0.23 0.22 0.24 0.25 0.27 0.27 0.28 0.29 0.30 0.30 0.29 0.29 0.28 0.28 0.27 0.26 0.24 0.22
1.27 1.20 1.16 1.14 1.13 1.13 1.12 1.09 1.07 1.06 0.95 0.84 0.75 0.72 0.66 0.74 0.79 0.77 0.65 0.52 0.45 0.54 0.52 0.51 0.48 0.49 0.50 0.56 0.55 0.59 0.46 0.42 0.40 0.47 0.51 0.54 0.47 0.44 0.42 0.39 0.37 0.37 0.38 0.38 0.32 0.30 0.26 0.28 0.32 0.34 0.33 0.31 0.31 0.31 0.30 0.29 0.29 0.27 0.26 0.24 0.22 0.25 0.24 0.19 0.25 0.27 0.27 0.26 0.23 0.24 0.22 0.21 0.24 0.25 0.26 0.29 0.29 0.30 0.31 0.31 0.31 0.32 0.31 0.31 0.30 0.30 0.28 0.27
1.30 1.27 1.22 1.18 1.17 1.16 1.16 1.14 1.14 1.05 0.95 0.89 0.83 0.75 0.77 0.81 0.77 0.75 0.61 0.45 0.42 0.48 0.52 0.53 0.53 0.51 0.49 0.47 0.57 0.50 0.43 0.43 0.45 0.42 0.56 0.51 0.42 0.47 0.41 0.39 0.37 0.36 0.33 0.35 0.34 0.31 0.28 0.32 0.35 0.35 0.34 0.33 0.29 0.30 0.29 0.28 0.25 0.27 0.26 0.25 0.24 0.24 0.24 0.24 0.23 0.27 0.28 0.27 0.28 0.24 0.21 0.19 0.22 0.22 0.24 0.27 0.30 0.30 0.31 0.31 0.31 0.32 0.32 0.32 0.31 0.31 0.31 0.29
1.36 1.34 1.29 1.25 1.22 1.22 1.19 1.19 1.04 1.00 1.02 0.96 0.89 0.94 0.90 0.86 0.83 0.83 0.62 0.51 0.46 0.44 0.61 0.55 0.55 0.52 0.51 0.63 0.58 0.46 0.47 0.47 0.44 0.47 0.52 0.48 0.43 0.41 0.39 0.43 0.40 0.34 0.36 0.38 0.36 0.33 0.31 0.36 0.36 0.32 0.32 0.32 0.30 0.28 0.28 0.27 0.23 0.23 0.26 0.26 0.25 0.25 0.24 0.24 0.25 0.25 0.23 0.22 0.25 0.24 0.17 0.14 0.20 0.21 0.22 0.25 0.28 0.29 0.31 0.29 0.28 0.28 0.28 0.29 0.28 0.27 0.28 0.28
1.40 1.39 1.37 1.32 1.28 1.24 1.24 1.01 1.01 1.07 1.00 0.91 0.98 1.04 0.97 0.89 0.88 0.85 0.65 0.44 0.33 0.43 0.51 0.40 0.55 0.43 0.57 0.47 0.52 0.47 0.47 0.39 0.52 0.51 0.54 0.54 0.55 0.44 0.41 0.38 0.39 0.31 0.35 0.34 0.32 0.31 0.31 0.36 0.34 0.30 0.28 0.27 0.26 0.25 0.26 0.27 0.22 0.20 0.22 0.28 0.26 0.26 0.25 0.25 0.24 0.24 0.19 0.17 0.23 0.27 0.19 0.13 0.18 0.20 0.22 0.26 0.27 0.27 0.28 0.27 0.26 0.26 0.26 0.27 0.27 0.28 0.28 0.28
1.44 1.43 1.42 1.38 1.32 1.30 1.05 0.88 1.10 1.07 0.89 0.93 1.11 1.09 1.00 0.91 0.97 0.80 0.56 0.39 0.31 0.42 0.39 0.48 0.47 0.50 0.56 0.51 0.50 0.49 0.33 0.37 0.53 0.55 0.52 0.58 0.49 0.56 0.39 0.37 0.39 0.38 0.38 0.36 0.30 0.25 0.31 0.30 0.30 0.31 0.29 0.28 0.26 0.25 0.28 0.30 0.26 0.23 0.30 0.30 0.29 0.28 0.26 0.25 0.24 0.24 0.22 0.26 0.27 0.28 0.25 0.19 0.14 0.18 0.24 0.27 0.26 0.26 0.25 0.24 0.24 0.25 0.26 0.27 0.27 0.27 0.28 0.28
1.44 1.45 1.43 1.40 1.35 1.30 1.11 1.13 1.07 0.97 0.99 1.11 1.19 1.07 0.99 0.98 0.91 0.84 0.52 0.30 0.26 0.47 0.40 0.46 0.51 0.64 0.55 0.56 0.55 0.45 0.45 0.50 0.42 0.50 0.56 0.57 0.54 0.49 0.44 0.38 0.36 0.35 0.37 0.35 0.24 0.33 0.32 0.29 0.28 0.27 0.27 0.26 0.25 0.29 0.31 0.34 0.30 0.28 0.33 0.33 0.30 0.30 0.30 0.29 0.27 0.26 0.26 0.24 0.19 0.24 0.28 0.22 0.18 0.20 0.26 0.27 0.24 0.23 0.22 0.22 0.23 0.25 0.25 0.25 0.26 0.27 0.28 0.29
1.43 1.44 1.42 1.41 1.40 1.37 1.34 1.21 1.13 1.03 1.15 1.22 1.19 1.11 0.99 0.98 0.84 0.62 0.45 0.29 0.40 0.44 0.60 0.44 0.63 0.54 0.53 0.57 0.51 0.51 0.49 0.50 0.41 0.49 0.56 0.58 0.57 0.49 0.40 0.42 0.42 0.41 0.41 0.39 0.31 0.33 0.35 0.34 0.32 0.31 0.29 0.27 0.31 0.33 0.34 0.33 0.29 0.31 0.34 0.34 0.32 0.32 0.31 0.31 0.29 0.27 0.27 0.24 0.17 0.22 0.26 0.21 0.19 0.19 0.23 0.25 0.22 0.20 0.20 0.22 0.23 0.24 0.24 0.25 0.26 0.27 0.27 0.28
1.44 1.47 1.46 1.45 1.40 1.32 1.28 1.30 1.19 1.27 1.30 1.29 1.23 1.17 1.05 0.89 0.70 0.49 0.38 0.25 0.43 0.35 0.46 0.48 0.48 0.45 0.53 0.47 0.47 0.51 0.47 0.48 0.49 0.51 0.52 0.47 0.49 0.51 0.47 0.50 0.45 0.43 0.41 0.42 0.38 0.37 0.38 0.41 0.40 0.34 0.31 0.33 0.33 0.35 0.36 0.35 0.35 0.38 0.36 0.32 0.31 0.31 0.29 0.30 0.29 0.28 0.26 0.20 0.19 0.25 0.28 0.26 0.19 0.17 0.19 0.19 0.19 0.21 0.22 0.23 0.24 0.24 0.26 0.26 0.27 0.27 0.27 0.27
1.37 1.41 1.43 1.47 1.26 1.27 1.26 1.08 1.21 1.33 1.35 1.33 1.27 1.21 0.97 0.79 0.59 0.45 0.31 0.37 0.54 0.48 0.52 0.48 0.45 0.52 0.47 0.44 0.41 0.48 0.48 0.48 0.48 0.49 0.44 0.49 0.45 0.47 0.46 0.44 0.49 0.44 0.41 0.39 0.37 0.38 0.39 0.39 0.38 0.39 0.42 0.40 0.39 0.36 0.40 0.40 0.41 0.40 0.36 0.33 0.31 0.28 0.30 0.28 0.27 0.28 0.21 0.17 0.20 0.25 0.26 0.26 0.19 0.16 0.20 0.22 0.24 0.24 0.24 0.22 0.23 0.25 0.26 0.27 0.27 0.27 0.28 0.28
1.29 1.33 1.39 1.36 1.36 1.37 1.09 1.02 1.26 1.34 1.32 1.27 1.20 1.03 0.81 0.55 0.57 0.38 0.33 0.61 0.40 0.46 0.43 0.43 0.48 0.47 0.46 0.47 0.44 0.43 0.42 0.45 0.47 0.46 0.43 0.44 0.43 0.43 0.45 0.43 0.45 0.37 0.33 0.34 0.33 0.39 0.36 0.37 0.42 0.43 0.47 0.42 0.39 0.36 0.37 0.40 0.41 0.39 0.36 0.34 0.28 0.25 0.25 0.21 0.24 0.21 0.21 0.19 0.22 0.26 0.26 0.23 0.18 0.18 0.23 0.24 0.24 0.25 0.25 0.25 0.26 0.27 0.27 0.27 0.27 0.29 0.31 0.31
1.18 1.22 1.29 1.32 1.33 1.22 1.24 1.27 1.30 1.27 1.26 1.23 1.09 0.90 0.65 0.49 0.34 0.39 0.44 0.51 0.45 0.50 0.47 0.54 0.49 0.49 0.48 0.46 0.44 0.46 0.49 0.42 0.48 0.47 0.48 0.49 0.47 0.48 0.49 0.47 0.46 0.41 0.31 0.35 0.34 0.33 0.33 0.39 0.40 0.41 0.43 0.45 0.42 0.34 0.35 0.34 0.38 0.37 0.34 0.32 0.28 0.24 0.23 0.20 0.22 0.25 0.24 0.24 0.28 0.28 0.30 0.22 0.20 0.22 0.24 0.24 0.25 0.27 0.27 0.28 0.28 0.28 0.28 0.28 0.29 0.31 0.31 0.33
1.11 1.14 1.07 1.15 1.20 1.21 1.24 1.27 1.25 1.23 1.16 1.12 0.94 0.75 0.62 0.43 0.34 0.50 0.46 0.50 0.51 0.59 0.55 0.51 0.53 0.52 0.50 0.44 0.46 0.51 0.47 0.53 0.52 0.50 0.52 0.46 0.45 0.40 0.43 0.46 0.46 0.42 0.39 0.37 0.32 0.31 0.26 0.26 0.32 0.38 0.36 0.44 0.41 0.40 0.39 0.37 0.36 0.35 0.37 0.34 0.31 0.29 0.24 0.22 0.24 0.21 0.22 0.24 0.26 0.30 0.26 0.20 0.17 0.19 0.26 0.27 0.28 0.28 0.29 0.29 0.29 0.28 0.27 0.28 0.29 0.30 0.31 0.32
1.05 1.07 1.09 1.11 1.13 1.22 1.23 1.24 1.22 1.21 1.12 0.97 0.76 0.60 0.43 0.38 0.42 0.43 0.45 0.51 0.55 0.58 0.54 0.60 0.52 0.48 0.45 0.46 0.50 0.53 0.52 0.46 0.51 0.48 0.47 0.45 0.41 0.42 0.41 0.42 0.47 0.46 0.43 0.35 0.36 0.34 0.31 0.30 0.34 0.40 0.42 0.43 0.38 0.41 0.41 0.38 0.35 0.36 0.37 0.37 0.31 0.28 0.34 0.27 0.28 0.27 0.26 0.24 0.24 0.25 0.22 0.25 0.23 0.27 0.28 0.30 0.30 0.29 0.29 0.29 0.28 0.28 0.29 0.29 0.30 0.30 0.31 0.32
0.91 0.90 0.99 0.93 0.96 1.09 1.23 1.23 1.17 1.16 1.03 0.84 0.63 0.49 0.41 0.40 0.39 0.47 0.47 0.58 0.56 0.49 0.52 0.55 0.51 0.43 0.42 0.44 0.50 0.48 0.55 0.48 0.49 0.50 0.47 0.48 0.47 0.42 0.44 0.43 0.42 0.44 0.41 0.36 0.37 0.30 0.30 0.26 0.35 0.38 0.42 0.42 0.42 0.44 0.43 0.42 0.29 0.34 0.36 0.30 0.31 0.38 0.34 0.30 0.30 0.30 0.30 0.27 0.22 0.25 0.24 0.25 0.28 0.27 0.27 0.28 0.28 0.28 0.29 0.29 0.29 0.30 0.31 0.31 0.32 0.32 0.33 0.34
0.78 0.86 0.73 0.81 0.86 1.00 1.11 1.21 1.23 1.13 0.98 0.76 0.57 0.43 0.47 0.49 0.55 0.53 0.57 0.54 0.55 0.56 0.51 0.40 0.43 0.43 0.40 0.40 0.43 0.46 0.49 0.52 0.50 0.48 0.41 0.46 0.41 0.43 0.42 0.43 0.47 0.45 0.45 0.41 0.36 0.38 0.29 0.27 0.34 0.35 0.35 0.44 0.49 0.48 0.47 0.45 0.45 0.40 0.33 0.35 0.40 0.42 0.38 0.31 0.25 0.26 0.25 0.22 0.23 0.26 0.22 0.22 0.22 0.19 0.25 0.26 0.26 0.27 0.28 0.28 0.30 0.31 0.32 0.32 0.33 0.34 0.35 0.35
0.68 0.70 0.71 0.71 0.82 0.97 1.03 1.07 1.05 0.98 0.84 0.66 0.50 0.46 0.54 0.47 0.57 0.56 0.62 0.59 0.58 0.57 0.49 0.45 0.45 0.52 0.43 0.42 0.41 0.45 0.52 0.47 0.48 0.48 0.43 0.47 0.40 0.51 0.45 0.45 0.50 0.48 0.48 0.48 0.39 0.38 0.39 0.29 0.32 0.34 0.38 0.44 0.49 0.48 0.45 0.47 0.47 0.39 0.37 0.45 0.33 0.27 0.27 0.31 0.29 0.23 0.22 0.21 0.22 0.25 0.26 0.25 0.24 0.22 0.24 0.24 0.25 0.26 0.28 0.29 0.30 0.31 0.32 0.33 0.34 0.36 0.36 0.37
0.66 0.62 0.49 0.61 0.82 0.88 0.91 1.00 0.93 0.80 0.68 0.55 0.49 0.45 0.55 0.55 0.60 0.56 0.59 0.58 0.57 0.52 0.46 0.47 0.44 0.50 0.49 0.44 0.45 0.49 0.51 0.43 0.49 0.47 0.41 0.45 0.40 0.52 0.49 0.52 0.49 0.53 0.51 0.48 0.40 0.38 0.36 0.29 0.29 0.36 0.35 0.42 0.45 0.44 0.33 0.36 0.44 0.45 0.44 0.38 0.41 0.35 0.30 0.28 0.29 0.29 0.28 0.23 0.23 0.24 0.26 0.23 0.26 0.24 0.24 0.24 0.24 0.26 0.28 0.29 0.30 0.31 0.32 0.33 0.34 0.36 0.38 0.38
0.54 0.46 0.41 0.69 0.85 0.89 0.91 0.88 0.71 0.65 0.54 0.42 0.44 0.46 0.54 0.49 0.55 0.56 0.57 0.53 0.48 0.45 0.43 0.42 0.47 0.43 0.46 0.44 0.46 0.42 0.47 0.46 0.45 0.45 0.44 0.46 0.41 0.51 0.46 0.52 0.45 0.46 0.46 0.45 0.40 0.43 0.35 0.39 0.28 0.35 0.43 0.43 0.34 0.36 0.32 0.33 0.31 0.33 0.34 0.33 0.35 0.35 0.39 0.36 0.35 0.31 0.27 0.24 0.24 0.23 0.22 0.25 0.28 0.30 0.27 0.25 0.26 0.28 0.28 0.29 0.30 0.31 0.33 0.35 0.36 0.37 0.37 0.39
0.57 0.44 0.44 0.77 0.81 0.87 0.86 0.72 0.57 0.47 0.43 0.46 0.46 0.41 0.45 0.43 0.46 0.47 0.51 0.55 0.50 0.56 0.45 0.44 0.42 0.37 0.38 0.38 0.39 0.45 0.43 0.45 0.44 0.40 0.40 0.41 0.40 0.33 0.46 0.44 0.47 0.43 0.47 0.44 0.43 0.46 0.41 0.40 0.32 0.35 0.33 0.29 0.28 0.35 0.35 0.34 0.34 0.34 0.35 0.34 0.36 0.33 0.31 0.28 0.26 0.34 0.31 0.28 0.24 0.23 0.22 0.28 0.34 0.34 0.29 0.28 0.29 0.30 0.31 0.31 0.31 0.32 0.34 0.35 0.36 0.37 0.39 0.40
0.42 0.29 0.33 0.68 0.80 0.79 0.62 0.44 0.46 0.49 0.44 0.37 0.33 0.38 0.38 0.47 0.42 0.43 0.45 0.52 0.51 0.46 0.55 0.47 0.47 0.43 0.41 0.40 0.39 0.39 0.40 0.38 0.39 0.36 0.39 0.33 0.40 0.39 0.42 0.47 0.45 0.45 0.40 0.36 0.39 0.46 0.42 0.39 0.35 0.30 0.31 0.29 0.30 0.34 0.41 0.43 0.43 0.41 0.42 0.39 0.41 0.40 0.38 0.32 0.25 0.27 0.31 0.31 0.32 0.30 0.26 0.28 0.37 0.36 0.30 0.29 0.32 0.33 0.35 0.35 0.34 0.34 0.35 0.36 0.37 0.38 0.38 0.39
0.31 0.27 0.59 0.68 0.81 0.70 0.54 0.42 0.44 0.43 0.40 0.42 0.47 0.44 0.47 0.45 0.41 0.42 0.40 0.45 0.42 0.49 0.46 0.45 0.42 0.40 0.42 0.38 0.38 0.37 0.38 0.33 0.35 0.32 0.35 0.37 0.38 0.41 0.43 0.45 0.47 0.44 0.45 0.40 0.41 0.42 0.45 0.36 0.32 0.32 0.38 0.42 0.44 0.44 0.44 0.46 0.44 0.42 0.43 0.43 0.40 0.35 0.35 0.33 0.32 0.33 0.30 0.31 0.28 0.28 0.25 0.29 0.37 0.36 0.34 0.34 0.34 0.35 0.36 0.36 0.35 0.35 0.37 0.38 0.38 0.37 0.37 0.38
0.29 0.29 0.35 0.60 0.74 0.68 0.47 0.31 0.31 0.34 0.37 0.42 0.43 0.42 0.50 0.46 0.42 0.38 0.36 0.41 0.40 0.41 0.38 0.39 0.42 0.44 0.38 0.43 0.39 0.33 0.38 0.28 0.37 0.33 0.34 0.40 0.36 0.46 0.44 0.45 0.47 0.42 0.42 0.41 0.35 0.51 0.32 0.39 0.35 0.29 0.30 0.33 0.36 0.38 0.38 0.40 0.43 0.39 0.35 0.35 0.36 0.37 0.38 0.38 0.39 0.38 0.31 0.31 0.31 0.28 0.22 0.27 0.36 0.41 0.39 0.38 0.36 0.35 0.34 0.35 0.37 0.38 0.38 0.38 0.37 0.38 0.39 0.40
0.28 0.31 0.30 0.42 0.55 0.53 0.31 0.33 0.31 0.32 0.35 0.35 0.38 0.35 0.39 0.41 0.44 0.40 0.40 0.40 0.46 0.45 0.44 0.41 0.43 0.45 0.41 0.43 0.39 0.40 0.42 0.35 0.31 0.38 0.35 0.35 0.36 0.44 0.42 0.46 0.48 0.45 0.48 0.52 0.52 0.56 0.42 0.40 0.38 0.27 0.23 0.20 0.19 0.19 0.20 0.22 0.27 0.33 0.38 0.37 0.37 0.36 0.33 0.32 0.29 0.30 0.27 0.29 0.31 0.28 0.27 0.32 0.37 0.39 0.38 0.38 0.37 0.36 0.37 0.38 0.39 0.39 0.39 0.38 0.39 0.41 0.44 0.45
0.18 0.09 0.18 0.26 0.42 0.40 0.35 0.42 0.38 0.36 0.32 0.33 0.31 0.34 0.36 0.31 0.37 0.41 0.43 0.39 0.44 0.45 0.46 0.45 0.46 0.46 0.41 0.41 0.36 0.37 0.34 0.39 0.36 0.35 0.35 0.34 0.38 0.43 0.47 0.48 0.47 0.46 0.49 0.51 0.51 0.53 0.45 0.45 0.42 0.37 0.32 0.27 0.27 0.29 0.34 0.36 0.34 0.30 0.32 0.35 0.34 0.34 0.34 0.32 0.30 0.27 0.24 0.26 0.26 0.29 0.29 0.29 0.31 0.35 0.36 0.38 0.40 0.39 0.37 0.35 0.35 0.38 0.42 0.46 0.46 0.45 0.44 0.44
0.24 0.14 0.11 0.14 0.26 0.34 0.28 0.30 0.27 0.32 0.27 0.32 0.25 0.31 0.25 0.26 0.28 0.32 0.41 0.28 0.36 0.33 0.38 0.38 0.35 0.33 0.32 0.32 0.30 0.31 0.33 0.32 0.36 0.36 0.34 0.33 0.36 0.40 0.47 0.47 0.47 0.48 0.48 0.48 0.51 0.46 0.39 0.33 0.32 0.32 0.32 0.33 0.34 0.33 0.35 0.36 0.32 0.32 0.31 0.29 0.31 0.31 0.31 0.30 0.28 0.24 0.29 0.28 0.24 0.29 0.31 0.31 0.33 0.38 0.39 0.39 0.39 0.38 0.38 0.39 0.41 0.42 0.43 0.42 0.41 0.41 0.42 0.43
0.11 0.14 0.21 0.28 0.19 0.14 0.19 0.24 0.30 0.26 0.25 0.26 0.24 0.27 0.21 0.21 0.24 0.23 0.31 0.32 0.35 0.36 0.28 0.33 0.32 0.31 0.30 0.27 0.28 0.25 0.26 0.26 0.28 0.24 0.28 0.32 0.31 0.32 0.31 0.37 0.36 0.41 0.41 0.40 0.44 0.38 0.32 0.26 0.27 0.28 0.28 0.32 0.32 0.32 0.33 0.33 0.34 0.35 0.36 0.37 0.35 0.35 0.36 0.32 0.31 0.32 0.33 0.30 0.25 0.30 0.34 0.33 0.34 0.37 0.40 0.42 0.42 0.41 0.40 0.39 0.40 0.40 0.40 0.40 0.40 0.40 0.40 0.41
0.20 0.20 0.20 0.30 0.18 0.20 0.20 0.25 0.27 0.29 0.29 0.31 0.26 0.26 0.21 0.20 0.18 0.22 0.23 0.26 0.30 0.29 0.32 0.23 0.28 0.30 0.30 0.32 0.30 0.26 0.28 0.22 0.21 0.27 0.28 0.28 0.30 0.29 0.27 0.29 0.35 0.41 0.37 0.35 0.37 0.41 0.36 0.30 0.31 0.32 0.31 0.34 0.35 0.34 0.35 0.33 0.33 0.33 0.33 0.34 0.33 0.32 0.32 0.33 0.34 0.35 0.36 0.35 0.36 0.36 0.35 0.35 0.39 0.40 0.43 0.42 0.43 0.43 0.44 0.44 0.44 0.42 0.42 0.42 0.42 0.41 0.41 0.41
0.13 0.16 0.13 0.23 0.22 0.19 0.21 0.23 0.25 0.23 0.22 0.28 0.27 0.30 0.28 0.25 0.22 0.23 0.27 0.26 0.22 0.24 0.35 0.28 0.29 0.30 0.31 0.31 0.31 0.26 0.28 0.28 0.26 0.22 0.28 0.28 0.27 0.30 0.26 0.27 0.26 0.33 0.35 0.31 0.33 0.38 0.36 0.28 0.32 0.29 0.27 0.26 0.29 0.29 0.29 0.28 0.28 0.26 0.27 0.29 0.30 0.30 0.30 0.32 0.34 0.36 0.38 0.36 0.36 0.36 0.36 0.36 0.42 0.45 0.42 0.44 0.44 0.44 0.45 0.42 0.42 0.42 0.41 0.40 0.40 0.40 0.40 0.40
0.20 0.24 0.27 0.17 0.12 0.14 0.17 0.20 0.20 0.20 0.18 0.20 0.19 0.20 0.27 0.29 0.28 0.32 0.31 0.37 0.31 0.27 0.30 0.26 0.28 0.28 0.28 0.26 0.26 0.26 0.30 0.29 0.29 0.29 0.30 0.29 0.23 0.29 0.27 0.27 0.34 0.29 0.32 0.33 0.35 0.35 0.36 0.29 0.31 0.27 0.20 0.17 0.21 0.20 0.20 0.22 0.24 0.24 0.24 0.24 0.22 0.20 0.20 0.23 0.25 0.28 0.30 0.30 0.33 0.33 0.32 0.31 0.36 0.41 0.43 0.43 0.43 0.41 0.42 0.41 0.41 0.40 0.41 0.40 0.39 0.39 0.40 0.39
0.24 0.25 0.27 0.22 0.12 0.15 0.13 0.17 0.18 0.18 0.14 0.19 0.20 0.20 0.19 0.19 0.24 0.27 0.23 0.34 0.35 0.34 0.31 0.29 0.29 0.28 0.27 0.28 0.26 0.29 0.33 0.33 0.31 0.31 0.32 0.34 0.34 0.33 0.33 0.33 0.35 0.33 0.32 0.31 0.35 0.32 0.31 0.27 0.22 0.18 0.14 0.12 0.13 0.15 0.16 0.18 0.19 0.15 0.13 0.14 0.16 0.19 0.23 0.27 0.30 0.32 0.31 0.31 0.28 0.25 0.26 0.31 0.34 0.36 0.36 0.38 0.39 0.39 0.39 0.41 0.40 0.42 0.42 0.41 0.41 0.41 0.40 0.39
Wind_Speed
11 11 11 11 11 11 11 11 11 11 11 11 11 11 11 10 10 10 11 11 11 11 11 11 11 12 12 12 12 12 12 12 13 12 13 14 13 13 13 12 12 11 11 11 11 11 11 11 12 12 12 12 13 13 13 14 13 13 13 13 15 15 14 13 14 14 14 16 16 16 16 15 17 17 17 17 17 18 18 18 18 18 18 17 17 17 16 14
12 12 12 12 12 12 12 12 12 13 12 12 12 12 12 12 12 12 12 12 12 13 13 13 13 13 13 13 13 13 13 13 14 14 15 14 14 14 14 14 13 13 13 13 13 13 13 14 14 13 13 14 15 15 15 15 15 14 14 15 16 16 16 15 15 16 16 17 18 19 18 17 18 18 17 17 19 19 18 18 18 19 20 19 19 18 17 17
14 14 14 14 14 14 14 14 14 14 14 14 14 14 14 14 14 14 14 14 15 15 15 15 15 15 15 15 15 14 14 15 15 14 14 13 13 14 15 15 15 15 15 15 15 15 15 15 15 14 15 16 16 16 16 16 16 16 16 17 18 18 18 18 19 19 20 20 20 21 19 18 19 19 17 18 20 20 18 18 18 19 21 21 20 19 19 19
16 16 16 16 16 16 16 16 16 16 16 16 16 16 16 16 16 16 16 17 17 17 17 17 17 17 16 16 16 15 15 15 15 14 13 14 15 15 15 15 16 16 16 16 16 16 16 15 15 16 16 18 18 17 17 18 18 18 17 18 19 18 19 21 21 22 23 21 21 21 20 20 21 19 18 19 20 19 18 18 19 21 22 22 20 19 20 20
18 18 17 17 17 17 17 17 17 17 18 18 18 18 18 18 18 18 18 18 18 18 19 18 18 18 18 18 17 16 15 15 15 15 15 16 15 15 15 15 16 16 17 17 17 17 17 16 16 17 18 19 19 18 19 20 19 19 20 21 21 19 20 22 22 22 22 21 21 21 21 21 21 20 20 19 19 20 21 20 20 22 23 22 21 20 21 22
19 19 19 19 19 19 19 19 19 19 19 19 19 20 20 20 20 20 20 20 20 20 20 20 20 20 20 19 18 17 16 16 16 17 17 16 15 15 15 15 16 17 17 17 17 17 18 18 18 18 19 19 19 19 21 21 20 21 21 22 23 22 22 23 23 23 22 22 22 22 23 22 22 22 21 20 21 24 26 23 22 24 24 23 21 21 22 23
21 21 21 20 20 20 20 20 20 20 20 21 21 21 21 21 21 21 21 21 21 21 21 21 21 21 21 20 18 17 16 18 20 18 18 17 17 17 16 17 17 17 18 18 18 18 19 19 19 20 19 20 21 21 22 21 21 22 22 21 23 24 24 25 25 25 24 24 25 24 24 23 23 23 21 21 24 27 28 25 24 25 24 24 23 23 24 24
22 22 22 21 21 22 22 22 22 22 22 22 22 22 22 22 22 22 22 22 22 22 22 22 22 22 21 19 18 18 18 20 21 19 18 18 18 18 18 18 18 18 19 20 20 19 19 20 21 21 20 21 21 21 21 21 21 22 22 22 22 23 24 26 26 26 26 26 26 25 25 26 25 24 23 25 27 28 28 26 26 25 25 24 24 25 25 25
22 23 22 22 22 22 22 22 22 22 22 23 23 23 23 23 23 23 23 23 23 23 23 23 23 22 21 19 18 18 19 21 20 19 19 19 19 19 20 20 20 20 20 21 21 20 21 21 23 22 22 22 21 21 21 22 23 23 23 23 22 23 25 25 25 25 26 26 25 25 27 28 26 24 25 26 28 28 26 26 25 24 24 24 24 24 24 25
23 23 22 23 23 23 23 23 23 23 23 23 23 24 24 24 24 24 24 24 24 24 24 23 23 23 22 20 19 19 20 21 21 21 21 21 21 21 21 21 21 21 21 21 21 21 22 22 22 22 23 22 21 21 21 21 23 22 23 25 24 25 26 25 25 25 25 25 25 25 27 29 25 23 24 25 26 26 25 26 25 24 24 24 23 24 24 24
24 23 23 23 23 23 23 23 23 23 23 24 24 24 25 25 25 25 25 25 25 25 25 25 24 24 23 22 21 21 21 22 23 23 23 23 23 23 23 23 23 23 22 22 23 23 23 23 22 21 22 22 21 21 22 22 23 23 23 25 25 25 26 25 24 25 24 25 25 25 28 28 24 22 25 28 27 26 26 27 26 25 26 25 25 24 24 24
25 25 24 24 24 24 24 24 24 24 24 24 25 25 26 26 26 26 26 26 26 26 26 26 25 25 24 23 24 24 24 24 24 24 25 24 24 25 24 24 24 24 24 23 24 25 24 24 23 23 23 22 21 21 22 22 22 23 22 25 26 24 26 26 24 24 23 24 24 24 27 27 24 24 27 30 29 27 27 28 28 27 27 26 26 26 25 25
26 26 26 25 25 25 25 25 25 25 25 26 26 27 27 27 27 28 28 28 28 27 27 27 26 26 25 25 25 26 26 26 26 26 26 26 26 26 25 25 25 25 25 25 25 25 24 24 24 24 24 23 22 22 22 22 22 24 23 24 26 25 25 23 21 22 22 23 23 23 27 28 26 27 29 29 29 28 28 29 29 29 28 27 27 27 27 27
26 26 26 26 26 26 26 26 26 27 27 28 28 28 29 29 29 29 29 29 28 28 27 27 26 26 26 26 26 26 26 26 27 27 28 27 27 26 26 25 25 25 25 25 25 25 24 24 24 24 25 24 24 24 24 24 23 24 24 25 25 26 26 22 20 22 23 25 23 24 29 30 28 28 29 28 28 29 29 30 30 30 30 29 28 28 28 28
26 27 27 27 27 27 27 27 27 28 28 29 29 30 30 30 30 29 29 29 28 28 27 26 26 26 27 27 26 26 26 26 27 28 27 27 26 26 26 25 25 25 25 25 25 25 25 24 24 25 25 24 24 24 24 25 24 23 25 27 25 26 28 27 24 23 25 26 24 25 30 31 30 29 29 28 28 28 30 32 31 31 32 31 31 30 30 30
27 27 27 27 27 27 27 27 28 28 29 29 30 30 30 30 30 29 29 28 27 27 26 26 26 26 27 27 26 26 26 26 27 27 27 26 26 26 25 25 25 25 25 25 25 25 25 25 25 25 25 24 23 22 24 26 26 24 26 29 28 28 29 29 27 24 25 26 26 28 31 32 30 30 30 28 28 29 31 32 32 33 33 32 32 32 32 32
27 27 27 27 27 27 27 27 28 28 29 29 30 30 30 29 28 27 27 26 26 26 26 26 26 27 28 28 27 27 27 27 27 26 25 26 25 25 25 25 25 24 24 24 24 24 25 25 26 26 25 24 22 21 24 27 27 26 27 29 30 30 30 30 28 25 24 26 29 31 33 34 32 31 32 31 30 30 31 33 34 34 34 33 33 33 34 34
28 28 28 28 28 28 28 28 28 28 29 29 29 29 28 27 26 26 26 26 25 25 26 26 25 26 28 27 27 26 26 26 25 24 25 25 25 25 25 25 25 24 24 25 25 25 25 26 26 26 25 24 22 22 26 28 29 29 29 30 31 31 31 31 30 27 26 29 30 31 34 36 34 32 33 33 32 32 32 34 35 35 35 35 35 35 36 35
29 29 29 29 29 29 28 29 29 29 30 29 29 28 28 27 27 27 26 26 26 26 27 27 26 27 28 28 28 28 27 27 26 26 25 25 25 25 25 26 25 25 25 25 26 26 26 26 26 26 27 26 25 25 29 31 31 31 31 31 32 32 32 31 31 29 28 33 33 32 36 37 35 33 32 33 33 33 34 33 34 35 35 36 36 36 36 36
30 30 29 30 30 30 30 30 30 30 30 29 29 28 28 28 28 28 28 29 29 29 29 30 30 31 31 31 31 30 30 29 28 27 25 25 25 25 25 26 25 26 26 25 27 27 27 28 29 29 28 28 28 29 31 32 30 31 30 32 33 34 34 32 32 31 28 33 35 33 37 37 35 34 32 32 32 31 32 33 33 33 34 35 35 36 36 36
31 31 30 31 31 31 31 31 31 31 31 30 29 28 28 28 29 30 31 32 33 33 34 34 34 34 34 33 32 30 30 29 28 27 26 26 24 25 26 26 26 27 27 26 27 28 28 31 32 30 29 29 30 30 31 31 30 31 31 33 34 34 36 34 33 33 28 31 36 34 38 39 36 35 32 31 31 30 31 32 32 32 32 33 33 35 35 35
32 31 31 31 31 31 31 31 31 31 31 30 29 28 29 30 31 32 32 34 35 34 35 35 35 36 36 34 33 31 30 30 28 27 27 26 26 27 27 26 27 28 27 26 27 28 30 33 32 31 30 30 30 28 28 29 30 31 31 33 34 33 35 35 33 33 30 31 35 35 39 40 36 35 33 31 31 30 31 31 31 31 31 31 32 33 34 34
33 32 32 32 32 32 32 32 32 31 30 30 29 29 30 31 31 32 32 34 35 34 34 35 34 36 35 34 33 31 31 30 30 29 28 27 27 27 27 26 27 27 27 27 28 30 31 32 31 31 30 29 30 28 28 30 30 31 31 32 34 32 32 35 33 32 30 31 34 35 39 40 37 36 33 30 30 29 30 32 33 32 31 32 33 33 33 32
33 33 33 33 32 32 32 32 32 31 30 30 29 30 30 31 30 31 32 34 35 34 33 34 33 34 34 32 30 29 30 29 28 28 27 26 26 26 26 26 26 27 27 28 29 32 33 31 29 29 29 29 31 30 29 30 32 32 32 32 34 33 33 35 33 32 32 32 33 34 39 39 34 31 29 26 28 29 30 32 32 33 33 32 31 30 30 30
34 33 33 33 33 33 32 32 31 30 30 29 29 30 29 29 29 30 32 33 35 35 33 32 32 31 30 28 27 26 26 26 26 26 25 25 25 25 25 25 25 26 26 26 28 32 32 28 26 26 28 28 29 30 28 28 32 34 31 30 33 34 33 34 32 31 31 31 30 28 32 34 28 26 28 27 27 29 29 29 31 32 31 28 26 27 28 28
34 33 33 33 33 32 32 31 30 29 29 29 29 29 29 29 29 30 30 32 35 35 32 30 29 27 26 25 24 23 23 24 25 25 24 24 24 24 24 24 24 25 25 25 27 29 29 26 24 26 27 26 27 29 27 25 30 33 30 28 30 31 31 32 30 29 29 29 29 25 26 32 32 28 29 30 29 30 29 28 28 26 25 25 27 28 27 27
35 34 33 33 33 32 31 30 30 30 29 29 29 29 29 29 28 29 29 30 33 31 27 26 25 24 25 24 24 23 25 26 25 25 24 24 25 24 25 25 24 24 24 24 26 27 26 25 25 25 25 24 25 26 24 23 27 31 28 26 27 28 29 29 27 28 29 30 31 28 26 31 35 32 30 31 31 31 29 26 23 23 25 28 29 28 27 26
36 35 34 34 33 33 32 31 31 31 30 30 29 29 29 28 28 28 26 27 29 26 24 25 24 25 26 25 25 25 27 27 26 26 25 25 25 24 24 25 23 24 24 24 28 28 24 25 26 25 25 24 25 25 23 22 26 28 26 25 26 27 27 26 26 28 28 30 31 28 24 27 35 35 31 30 29 28 27 23 22 25 28 29 27 27 26 25
35 35 35 34 33 32 32 32 31 31 30 30 29 29 28 28 28 26 24 27 28 26 26 27 26 27 27 26 27 27 27 27 26 25 24 24 25 23 23 24 23 24 25 25 29 29 25 25 26 25 26 26 26 25 24 24 27 27 24 25 26 26 27 26 28 29 27 29 30 26 24 25 34 36 29 26 26 25 24 23 25 29 29 28 26 26 26 27
35 35 34 33 32 31 30 31 31 31 30 29 29 28 28 27 26 24 26 28 28 27 27 28 28 28 27 26 28 27 26 26 25 24 24 24 25 23 23 23 23 25 27 28 30 30 27 26 26 27 27 27 26 26 26 26 27 27 26 27 28 28 29 28 30 29 27 31 31 28 27 26 31 33 25 24 26 24 25 27 30 30 28 28 28 28 30 30
35 35 34 33 32 31 31 30 31 30 29 28 28 28 27 26 24 24 28 29 28 28 28 28 28 27 26 25 26 26 26 26 26 25 25 24 24 23 24 24 24 26 28 29 30 30 28 27 28 29 29 27 27 27 28 28 27 28 27 28 29 30 29 29 30 28 27 32 32 30 29 27 30 32 27 27 29 27 30 32 32 30 29 30 31 32 33 32
34 35 34 34 34 34 33 32 30 29 28 28 27 27 26 26 26 29 31 28 26 26 25 25 26 25 25 25 26 27 26 27 26 25 25 25 25 26 27 27 27 27 29 29 30 30 31 31 31 31 31 29 28 29 30 29 27 27 27 28 28 28 27 28 28 27 28 33 33 30 28 29 36 38 34 35 36 34 33 32 31 32 32 35 36 35 35 34
34 35 35 35 35 35 35 33 31 30 30 29 28 27 26 26 29 32 32 29 26 26 25 25 26 25 25 27 28 28 27 28 27 27 28 27 29 30 30 30 28 28 30 30 30 32 33 33 31 31 32 30 28 29 30 29 28 27 28 28 26 26 27 29 29 28 30 34 33 30 29 32 38 39 36 37 37 35 33 31 32 34 35 37 37 36 35 34
35 36 36 37 37 38 37 35 33 33 32 31 29 28 27 30 33 32 31 32 30 29 29 29 29 29 29 30 31 30 30 31 30 29 30 30 31 32 32 32 30 30 31 31 32 32 32 34 32 30 30 29 29 30 30 29 29 30 30 28 29 29 29 29 28 30 33 33 32 30 30 33 36 36 35 35 34 35 35 34 36 37 36 35 34 32 32 33
37 37 38 38 39 39 39 38 37 35 33 32 30 29 31 35 35 33 33 34 33 32 32 32 31 32 34 34 34 33 32 32 30 29 31 32 32 33 33 33 32 31 30 31 32 32 32 36 36 32 31 29 31 32 30 28 30 32 30 29 32 32 31 31 32 34 34 32 31 33 35 38 39 40 41 39 39 40 38 38 38 36 35 32 31 31 31 32
38 38 39 39 40 40 39 39 38 36 35 33 32 34 38 39 36 35 35 34 33 32 33 33 32 34 35 35 34 33 32 32 31 31 33 34 34 36 36 35 33 32 32 33 34 34 35 38 37 34 34 33 32 32 31 30 30 30 30 32 34 33 32 34 35 35 33 32 34 36 39 41 41 42 43 40 39 39 36 36 36 35 34 32 31 31 30 29
39 39 39 40 40 40 39 39 38 37 37 35 37 40 41 41 39 38 37 36 36 34 33 35 35 34 35 34 34 34 33 33 33 33 35 35 36 36 36 36 35 35 36 36 36 36 37 39 40 38 39 38 36 34 35 34 33 32 33 35 35 33 33 33 32 32 32 33 35 36 40 41 38 39 39 36 35 36 35 35 35 35 34 33 33 33 31 29
40 40 40 41 41 40 39 39 39 39 37 37 41 44 42 41 41 39 38 37 37 37 36 37 37 36 36 36 36 36 35 36 35 35 36 36 37 36 36 37 36 37 38 37 36 37 37 39 41 41 40 39 37 37 39 39 38 37 38 37 35 34 35 34 32 31 32 34 34 34 38 40 38 39 41 39 38 39 38 38 38 38 36 35 34 33 31 31
40 40 41 41 40 39 39 39 38 38 38 39 43 44 42 42 42 40 40 39 38 38 39 40 39 38 38 39 39 39 39 39 37 37 37 37 37 37 36 37 37 37 39 38 37 38 37 37 39 39 39 38 38 39 42 42 40 38 39 38 37 37 37 36 35 33 33 35 35 34 35 36 37 38 40 41 40 39 39 39 38 38 36 34 33 33 34 33
39 39 40 39 38 38 38 38 38 38 39 41 43 44 42 43 43 43 43 42 40 40 40 40 40 40 40 40 40 41 41 41 40 39 39 39 40 40 39 39 39 39 39 37 37 37 36 37 39 39 38 39 40 41 42 42 40 38 39 38 38 38 38 37 36 35 35 35 35 35 35 35 35 36 39 41 39 37 38 37 37 38 37 36 35 34 35 35
38 38 39 38 36 36 36 37 38 39 41 42 44 45 44 44 44 43 43 43 42 42 40 40 40 41 41 41 41 41 41 41 41 41 42 42 43 42 41 40 39 38 37 37 38 37 36 37 39 39 39 42 44 43 40 40 39 38 38 37 36 37 37 36 37 37 37 37 36 36 37 36 35 37 41 41 38 37 37 37 39 39 39 39 38 37 37 38
38 38 38 37 36 36 36 37 38 39 41 42 43 43 43 43 43 43 43 43 43 42 41 41 41 41 42 42 42 41 41 42 43 43 43 44 44 43 42 40 39 38 37 38 40 39 38 38 40 41 42 44 46 44 41 40 40 39 38 37 36 36 36 37 38 38 38 39 39 40 40 38 37 41 44 42 38 38 39 39 40 41 42 42 41 42 42 43
38 39 37 36 37 37 36 38 39 40 41 42 41 41 41 42 42 42 42 42 42 41 42 41 42 42 42 42 42 41 41 42 43 43 44 44 44 45 44 43 41 39 39 40 41 40 38 38 40 42 42 42 43 43 42 41 40 40 40 40 40 40 41 41 41 41 40 40 40 40 40 39 38 41 42 41 41 41 42 43 43 43 43 44 44 46 47 46
39 40 39 38 39 38 38 39 40 41 42 41 42 42 42 42 42 43 42 42 41 41 41 42 41 42 42 41 41 41 41 41 43 43 43 42 43 44 44 44 42 39 38 39 39 39 38 37 37 37 36 36 37 38 39 39 38 40 41 41 41 42 42 43 42 41 41 41 42 42 42 41 40 41 41 42 43 44 45 45 45 43 44 45 46 47 47 45
38 39 39 39 40 41 41 41 41 42 42 42 43 44 43 43 43 43 43 42 42 42 42 42 41 41 41 40 41 41 41 41 42 42 41 41 42 42 42 41 40 39 39 39 37 37 38 36 36 35 35 35 37 36 36 37 37 38 39 39 40 41 42 42 42 41 42 44 45 45 45 45 44 44 44 45 46 46 47 48 48 47 46 44 42 41 41 41
37 38 39 39 40 42 43 43 42 42 42 42 43 43 44 45 44 43 43 44 44 44 43 43 42 41 41 41 42 42 42 42 42 42 42 42 41 40 40 40 39 39 39 39 36 35 36 37 37 39 40 40 41 41 40 40 41 41 41 41 41 41 42 43 43 44 45 45 47 47 48 49 47 45 47 47 47 48 48 48 47 45 42 40 39 39 40 40
38 38 38 38 39 41 42 43 43 43 42 42 42 42 44 46 45 43 43 44 44 43 43 43 43 43 43 43 43 44 44 43 43 43 43 43 42 42 42 41 40 39 39 38 37 37 38 40 42 44 45 45 46 47 45 44 46 47 46 46 45 44 44 44 45 47 46 44 46 47 47 48 47 46 47 47 46 45 44 43 43 41 41 42 42 42 42 42
38 38 38 38 38 40 41 42 42 42 42 42 42 43 44 45 45 44 43 42 42 41 41 42 43 43 43 42 42 42 42 42 43 43 42 41 40 41 41 40 39 38 38 38 38 37 39 42 43 45 45 44 44 45 45 44 45 45 45 45 46 46 47 48 50 51 49 47 49 49 49 50 48 45 44 43 43 42 42 41 42 42 43 44 43 43 43 43
39 39 39 39 39 40 40 41 41 41 43 43 42 43 45 46 46 44 41 41 41 41 41 42 41 41 40 40 39 39 40 40 40 40 39 38 38 39 40 39 38 37 36 37 37 37 37 39 40 41 42 41 41 42 43 43 45 46 46 46 47 48 49 51 52 52 52 53 53 52 53 51 46 42 42 41 42 43 42 41 41 41 42 43 43 43 43 44
39 39 39 39 40 40 41 41 40 41 42 42 42 43 44 45 45 43 40 40 42 41 41 41 40 39 38 38 38 39 38 38 38 38 37 37 38 37 38 38 38 38 37 37 37 37 36 37 38 40 41 43 43 44 45 44 45 46 47 47 47 48 50 51 51 50 50 52 52 51 50 46 40 40 42 42 42 43 41 40 40 41 41 42 43 43 43 44
40 40 40 40 41 40 40 40 40 41 42 42 43 43 43 43 43 41 40 40 40 40 39 39 40 39 39 39 40 40 38 37 38 39 38 38 39 38 37 38 38 39 38 36 36 36 36 38 39 40 42 45 46 46 47 46 45 47 48 49 49 49 49 49 47 46 47 48 48 46 44 41 40 42 42 41 41 42 41 41 40 40 41 41 42 43 43 44
41 41 41 41 42 41 40 40 40 41 42 42 42 42 41 41 40 40 41 40 38 37 38 38 39 39 39 39 39 38 38 37 38 39 39 40 40 40 40 40 40 40 39 38 37 37 38 39 40 40 42 45 47 47 46 44 44 46 47 47 47 46 46 46 44 43 44 45 44 42 40 41 42 42 41 41 40 40 40 39 38 38 39 39 40 41 42 43
Wind_Direction
280 282 283 284 284 285 285 286 286 287 288 288 289 288 289 289 288 289 289 290 290 291 292 293 294 296 297 297 296 296 296 292 290 287 281 282 281 276 273 274 270 265 268 276 276 275 278 278 275 277 280 281 283 283 284 283 282 286 287 285 285 283 284 284 280 282 287 290 291 294 293 287 290 293 293 296 294 291 290 289 289 289 288 286 287 289 286 279
279 280 282 282 283 283 284 284 284 285 285 285 286 286 286 286 286 287 286 287 287 287 288 289 291 292 293 294 292 293 292 290 289 284 281 281 281 277 273 272 269 266 269 273 271 272 275 275 272 277 279 279 282 283 282 281 279 281 283 284 282 280 283 282 279 282 285 288 289 293 293 286 285 290 294 293 291 293 291 288 289 288 286 286 286 285 280 274
278 279 280 281 281 282 282 282 283 283 283 283 284 284 284 284 285 285 285 285 285 286 286 287 288 289 290 290 290 290 288 289 287 282 281 281 280 280 275 271 267 265 269 273 271 270 274 273 271 275 278 278 280 281 282 280 278 279 281 283 281 279 283 283 280 281 282 286 291 292 291 286 285 288 290 290 292 293 288 286 287 284 283 283 284 283 278 273
278 278 279 280 281 281 281 282 282 282 282 282 282 283 282 283 283 283 284 284 284 284 284 285 286 287 288 288 288 287 287 288 282 276 282 283 282 281 276 270 266 265 269 273 272 271 274 273 272 276 277 278 280 281 279 277 278 280 278 279 280 281 284 282 280 281 283 286 287 288 291 289 287 287 285 288 295 292 285 284 282 281 282 283 284 282 277 274
277 277 278 279 279 280 281 281 281 281 282 282 282 282 282 282 283 283 283 283 283 283 284 284 285 286 287 287 286 285 287 286 278 276 282 283 283 281 276 272 268 267 269 270 272 271 272 274 274 277 278 278 279 281 279 274 275 280 277 276 278 280 283 283 282 283 284 285 285 286 289 288 288 286 282 283 287 286 286 287 283 283 285 284 283 280 277 274
275 276 277 277 278 279 280 280 281 281 281 281 281 281 281 281 282 282 282 282 283 283 283 283 284 285 286 286 284 283 283 279 278 281 281 280 281 280 278 275 271 271 270 271 273 271 272 274 275 276 278 280 277 276 278 275 274 279 280 278 277 277 279 283 283 283 284 285 285 285 286 287 288 287 283 279 278 280 285 287 285 285 285 285 284 280 276 273
275 275 275 276 277 278 280 280 280 280 280 280 280 280 280 281 281 281 281 281 282 282 282 283 283 283 284 283 281 281 278 275 279 281 279 278 279 280 279 277 274 273 271 271 272 272 273 274 274 274 278 282 278 276 278 278 275 279 283 281 279 277 278 281 282 283 284 283 283 285 287 287 284 286 287 281 278 280 285 287 286 286 286 286 284 279 275 272
275 275 275 276 277 277 279 280 280 280 280 280 280 280 280 280 280 280 280 280 280 281 281 281 281 282 282 280 279 280 276 274 278 279 277 278 280 280 278 277 275 274 272 270 270 271 273 273 272 275 279 280 278 278 279 280 280 279 280 281 281 280 279 281 283 284 283 283 283 285 285 283 281 286 288 283 282 282 285 288 287 286 287 285 282 279 277 274
275 275 275 276 277 277 278 279 279 279 280 280 279 280 280 280 279 279 279 279 279 279 279 279 279 280 279 278 277 279 276 275 277 277 278 278 279 279 278 277 275 273 274 273 271 271 273 273 272 274 277 278 277 278 278 279 280 277 276 280 282 282 282 283 284 283 282 282 282 283 284 283 284 288 286 282 282 284 287 288 288 287 287 285 284 282 279 276
273 274 275 276 276 277 278 278 278 278 279 279 279 279 280 279 279 280 279 280 279 279 279 278 278 278 277 276 276 276 275 275 276 276 277 277 278 278 276 275 274 272 273 275 272 270 272 273 274 274 276 279 278 278 278 277 279 278 279 281 281 282 284 283 283 282 282 282 280 280 282 283 286 287 284 282 283 285 287 288 289 289 287 286 285 284 282 279
272 273 274 274 275 276 277 277 277 277 278 278 279 279 280 280 280 280 280 280 280 279 279 278 278 277 275 274 272 273 275 276 276 276 275 276 276 275 274 273 272 271 271 274 272 271 273 273 274 277 278 279 279 280 279 277 280 282 284 285 283 285 286 282 281 282 282 284 280 277 281 284 287 284 279 281 283 285 286 287 289 288 287 287 286 285 284 282
271 272 273 273 275 276 276 276 276 277 278 279 279 279 279 279 279 279 279 279 279 279 279 278 277 275 275 274 271 272 276 276 276 275 275 275 275 275 274 272 271 270 269 271 273 272 272 273 273 274 276 278 281 283 280 280 283 285 286 287 285 288 288 284 282 281 280 285 284 281 285 285 284 279 277 280 283 284 284 285 287 287 286 286 286 286 286 284
272 272 272 273 274 275 275 275 277 277 278 279 279 279 279 278 278 278 278 278 278 278 278 277 276 275 275 274 274 275 277 276 275 275 275 275 276 276 274 272 271 270 270 270 272 272 271 272 271 271 273 276 279 280 282 284 284 284 285 285 286 288 287 285 286 286 284 286 286 284 285 284 282 279 279 282 283 283 282 283 285 286 286 285 285 286 286 285
272 272 273 273 274 275 275 276 277 277 278 279 279 279 279 278 278 278 278 278 278 277 277 276 276 275 274 275 277 278 277 277 275 275 275 275 275 275 275 274 272 271 270 270 271 272 271 272 271 272 273 274 277 281 283 285 284 284 284 283 285 284 282 286 289 289 288 288 284 282 283 283 284 282 281 283 282 281 281 281 283 285 286 285 284 284 284 284
272 273 273 273 274 275 275 277 277 278 279 279 279 279 279 279 278 278 277 277 277 276 275 276 275 275 276 277 279 279 278 277 276 274 274 273 273 274 275 273 273 272 271 271 271 271 271 271 271 271 273 274 277 281 283 282 283 284 282 282 283 281 282 288 288 284 285 288 285 281 282 284 285 283 282 284 282 280 280 280 282 283 284 284 283 283 282 283
273 273 273 273 274 275 276 277 278 278 279 280 280 280 280 279 278 277 276 276 275 274 274 275 275 275 277 279 280 280 278 276 276 275 274 272 272 273 274 272 273 273 272 272 271 271 271 271 271 271 272 274 275 278 282 280 281 283 280 280 282 281 285 289 289 283 283 287 286 281 282 285 286 284 284 284 282 281 280 280 281 281 282 282 282 282 281 282
272 273 273 273 274 275 276 278 278 279 280 281 281 280 280 279 278 277 276 275 274 273 274 275 275 275 277 279 281 280 278 276 276 275 274 273 272 272 273 273 273 272 272 272 272 272 272 270 270 272 273 274 275 277 277 276 278 281 280 280 281 282 284 287 289 290 287 284 283 283 282 283 285 286 286 285 283 282 281 281 281 280 281 281 281 281 280 280
273 273 273 273 274 275 276 277 278 279 280 281 281 279 278 277 276 276 275 274 273 274 275 276 276 277 278 278 280 280 280 278 276 275 275 275 274 272 272 272 271 271 272 274 272 270 271 271 271 272 273 273 274 273 271 272 277 279 279 280 282 282 282 283 287 292 292 284 282 284 283 283 285 287 287 286 284 283 281 280 281 280 280 280 280 279 279 279
273 273 274 274 274 275 276 278 278 279 280 281 280 277 276 276 275 275 274 273 272 273 275 274 272 276 278 278 280 281 280 277 276 275 275 275 274 272 272 272 272 271 271 273 273 268 268 272 272 270 271 272 271 268 267 271 275 277 279 279 280 281 281 282 285 288 291 287 283 282 283 284 286 286 287 286 285 284 283 282 281 281 280 279 279 278 278 277
272 272 273 274 274 275 276 278 279 280 281 280 279 276 275 276 276 275 275 272 271 272 275 274 272 274 277 280 280 279 278 277 276 276 275 273 272 272 272 273 273 271 271 271 271 269 269 269 268 268 269 270 269 267 268 272 277 279 279 279 279 280 281 283 286 287 289 287 283 282 283 284 285 286 286 286 285 285 285 285 283 282 281 280 278 278 277 277
271 271 272 273 274 275 276 278 279 280 280 279 278 276 274 274 274 275 276 274 273 273 275 275 274 275 276 279 278 278 278 277 276 276 274 272 271 271 271 271 271 272 272 271 271 272 271 268 267 268 269 270 269 270 271 275 278 277 277 279 279 279 282 284 284 287 288 285 284 285 285 284 285 286 285 285 285 285 285 285 284 283 281 281 280 279 278 277
271 271 272 272 273 274 275 277 279 279 279 278 277 276 274 274 274 275 276 276 275 275 275 275 275 275 276 277 276 277 278 278 279 277 273 271 270 269 271 270 270 272 272 270 272 274 271 269 270 270 272 273 274 274 274 274 275 275 276 278 278 280 284 285 283 285 286 284 285 288 286 284 285 285 284 284 283 283 283 283 284 284 283 282 282 281 280 279
270 271 272 272 273 274 275 277 278 278 278 277 277 276 275 276 276 277 277 276 276 275 274 275 274 274 276 277 276 275 276 277 278 277 271 269 269 268 268 268 269 271 269 267 268 270 270 271 271 270 272 274 275 275 274 275 275 274 275 276 278 282 284 284 284 287 286 283 286 289 287 285 285 285 283 281 281 283 283 282 283 284 283 282 281 281 282 281
269 270 271 272 273 273 274 276 276 276 277 276 276 276 276 276 276 278 278 277 277 276 274 273 273 274 275 277 276 274 274 274 276 277 272 267 268 268 267 266 267 269 268 266 265 267 270 273 273 271 272 271 272 273 273 275 277 274 274 275 278 280 280 281 286 291 288 284 286 290 289 287 284 282 283 283 284 285 285 284 285 285 283 282 283 283 282 280
268 268 270 271 272 273 274 275 274 274 275 274 275 276 276 276 276 278 280 279 278 278 276 273 273 274 274 276 276 273 273 274 274 276 274 268 266 269 270 267 268 269 268 267 268 270 271 273 275 274 273 271 271 273 272 273 276 277 274 273 275 278 279 281 286 291 289 287 288 290 290 288 285 280 283 289 291 289 288 286 286 285 284 286 288 285 282 280
266 266 268 269 270 272 273 272 271 273 274 272 274 276 275 275 277 279 281 281 279 279 277 274 271 272 273 274 274 273 275 277 276 275 274 271 267 268 271 269 270 270 267 268 270 272 273 274 273 272 272 272 272 275 274 270 274 278 276 274 274 278 279 281 284 286 284 284 288 287 284 285 287 283 284 291 292 289 288 287 286 285 286 289 289 285 283 281
266 266 267 268 269 270 270 269 270 271 272 272 273 276 275 275 277 279 282 282 279 277 275 272 272 273 273 272 271 271 274 277 279 276 273 270 269 269 270 269 270 270 268 270 272 271 274 276 275 274 273 272 272 276 275 269 271 277 280 278 276 277 278 279 281 279 280 283 284 281 278 281 285 285 287 290 289 290 290 287 288 289 289 288 287 285 283 281
265 266 266 267 267 268 268 269 270 271 271 271 274 275 275 275 277 279 280 279 277 276 273 273 275 278 277 274 272 273 275 277 277 275 272 269 268 269 269 267 266 269 269 269 270 273 275 276 274 272 272 271 272 275 275 270 272 278 282 280 278 278 278 278 278 277 281 285 282 278 276 280 284 286 291 293 290 290 290 287 291 294 291 289 288 285 283 283
264 265 266 266 266 266 267 268 269 270 270 271 273 275 275 275 276 278 275 271 273 275 275 276 277 279 279 277 276 276 276 276 273 272 272 269 267 267 267 266 265 269 272 269 270 275 277 276 273 270 271 273 274 276 274 268 271 278 280 281 282 282 281 280 278 278 281 281 277 275 275 281 285 287 291 292 291 289 287 288 295 297 293 289 288 285 283 285
265 265 264 264 264 264 265 266 267 267 268 270 271 274 275 274 274 273 267 266 272 275 276 278 278 279 280 278 278 277 275 274 272 272 272 269 268 268 266 267 268 271 274 273 273 275 276 276 274 272 274 275 276 278 276 270 273 280 280 281 283 282 282 281 278 278 279 276 273 270 271 277 284 286 286 285 287 286 285 292 298 297 292 290 288 286 285 286
266 265 263 262 262 262 264 266 267 265 265 268 271 273 274 273 270 265 263 269 274 275 276 277 278 279 278 276 277 277 276 275 273 271 271 269 268 268 268 270 272 274 276 275 275 276 275 274 275 276 275 276 277 278 279 277 277 280 280 280 282 281 282 282 279 277 274 273 274 270 270 271 273 278 283 284 285 284 286 294 297 294 290 290 290 290 288 288
268 265 263 262 262 262 263 265 266 263 263 266 270 272 271 269 264 260 265 274 276 274 274 275 277 277 277 278 277 276 276 275 273 270 269 267 266 266 268 268 270 274 275 273 275 278 275 272 275 278 276 274 274 275 279 281 279 277 276 276 279 281 282 280 277 275 272 273 276 273 271 269 268 273 280 281 282 283 284 289 290 290 291 291 292 292 291 291
269 266 264 262 261 262 263 264 263 262 263 265 268 270 268 264 264 263 265 268 269 272 274 275 276 275 275 278 277 275 274 273 272 271 271 270 269 269 270 269 268 272 273 273 277 279 277 276 276 277 276 272 271 272 275 277 276 273 272 271 272 275 278 277 276 277 276 276 277 273 269 271 273 276 277 277 280 282 282 283 284 288 291 291 292 293 293 294
269 266 265 263 263 263 263 263 262 262 263 263 264 266 262 260 265 268 267 266 269 273 274 274 276 276 275 275 275 274 275 274 272 271 272 272 271 271 271 270 270 272 274 275 276 275 276 278 275 273 275 272 269 270 270 273 274 271 272 272 270 270 273 275 275 277 277 279 278 272 268 270 274 277 277 277 281 283 283 283 284 285 285 286 289 292 295 297
269 267 266 265 265 263 262 261 260 261 260 260 261 261 259 260 266 269 268 269 271 273 274 273 274 275 275 275 275 274 273 274 274 271 270 269 269 270 272 271 270 271 272 273 274 274 273 274 274 275 278 274 271 272 272 274 274 273 273 272 271 272 272 273 273 272 275 278 275 271 270 271 274 277 278 278 280 281 282 283 283 282 280 281 287 292 296 299
270 268 266 266 265 264 262 260 259 259 257 258 260 259 258 262 265 266 268 270 271 272 274 274 272 273 274 274 274 275 273 272 272 271 269 269 270 270 271 272 270 266 268 271 274 275 274 274 274 276 278 274 271 272 271 270 272 273 272 271 275 277 273 272 274 273 273 274 272 270 273 276 278 279 279 279 281 282 282 281 278 277 278 281 286 290 292 296
270 269 267 266 265 264 261 259 258 257 257 258 259 259 261 263 264 264 267 270 270 271 273 273 271 271 271 271 272 272 272 272 271 270 269 270 271 269 270 272 270 266 267 272 275 274 274 275 274 274 275 273 271 272 271 269 270 272 273 275 278 279 274 272 276 276 273 272 272 269 270 275 278 278 279 282 283 281 279 277 275 275 279 282 285 287 289 290
270 270 268 266 265 263 261 258 256 256 258 259 258 259 262 264 265 265 266 267 270 272 271 270 270 270 269 269 270 270 270 271 270 269 269 270 270 269 270 272 271 268 269 273 276 276 275 276 275 273 272 272 272 271 271 271 270 272 276 277 276 275 274 272 273 275 273 273 275 270 268 271 272 273 277 278 277 277 276 276 277 277 278 281 283 286 289 290
270 269 268 268 265 262 260 258 256 255 258 259 259 260 262 264 265 265 265 266 269 270 270 269 270 271 269 268 269 270 270 269 269 269 269 269 269 269 271 272 272 272 272 272 274 276 276 275 276 274 271 272 272 270 270 272 274 276 277 277 274 272 273 272 271 273 273 274 276 273 270 270 269 271 275 274 273 274 274 275 276 275 276 278 281 285 289 289
268 268 269 268 265 261 258 257 255 255 257 259 260 262 264 265 266 266 265 267 268 269 269 269 268 269 269 269 270 270 271 269 268 268 268 268 268 269 270 271 273 275 275 274 273 275 276 274 275 275 273 272 271 269 270 273 275 275 274 273 272 272 273 273 271 270 271 274 275 274 272 269 269 272 274 274 274 273 273 274 274 274 276 278 280 283 285 286
266 267 268 267 263 260 257 256 256 257 259 260 262 263 265 266 267 267 267 267 268 269 269 268 268 268 270 270 270 270 270 269 268 268 268 268 268 269 269 270 272 274 275 275 273 273 275 274 274 274 272 271 271 272 272 272 272 273 272 271 271 271 273 274 271 269 269 271 272 273 272 269 268 271 274 275 274 272 272 273 273 274 277 279 281 282 283 284
265 266 268 265 260 257 256 257 259 259 260 261 263 264 265 266 266 266 267 267 268 269 270 269 269 269 270 270 270 270 269 269 268 267 268 268 267 268 270 272 272 273 273 273 272 272 273 275 274 273 271 271 273 273 272 271 273 273 271 270 271 271 271 270 271 272 271 270 270 271 272 270 267 270 274 275 273 270 271 271 272 274 275 278 281 283 283 282
264 265 267 264 259 256 257 260 261 260 262 263 265 265 265 266 266 266 267 267 268 269 269 269 269 269 269 270 270 269 269 269 268 267 268 269 268 268 269 271 272 273 273 272 273 274 274 274 274 275 275 275 275 275 273 271 272 272 271 270 270 269 269 269 271 273 272 270 270 271 270 270 270 272 275 276 273 271 271 270 272 274 275 277 280 283 284 282
266 267 266 264 260 257 259 262 262 263 264 265 266 265 265 266 266 266 267 267 268 268 269 269 269 269 269 269 269 268 268 269 269 268 269 269 270 269 268 269 270 270 271 272 274 275 274 273 273 276 277 277 276 276 275 273 271 271 272 271 270 269 269 271 272 272 271 268 268 269 270 270 273 276 276 275 274 273 273 272 273 275 277 278 281 283 285 284
269 268 267 265 261 259 261 263 264 265 265 265 265 265 266 266 266 266 267 267 267 267 269 270 270 270 270 270 270 269 268 268 269 271 270 270 272 272 271 272 272 271 272 275 276 275 274 273 272 273 274 275 276 276 276 276 275 274 274 272 271 270 269 271 271 270 269 268 266 267 270 272 273 275 275 275 275 275 274 275 275 277 278 280 282 285 286 286
268 268 268 266 262 261 262 263 264 264 265 265 266 265 265 266 268 267 267 267 267 266 268 270 270 270 270 269 269 269 268 267 268 270 271 271 272 273 275 277 275 273 275 276 274 271 272 272 270 271 271 273 275 276 277 278 277 276 276 274 273 273 272 272 271 268 270 272 269 267 271 273 274 274 275 275 274 275 276 277 279 280 281 282 283 285 286 286
268 268 267 266 264 263 264 263 262 263 264 264 265 265 265 266 268 267 266 267 267 266 267 268 267 267 267 268 268 268 268 268 268 269 270 271 271 273 276 276 275 275 275 274 272 270 271 271 270 270 271 272 274 276 276 277 276 275 276 275 275 275 274 272 270 270 273 274 271 271 273 274 274 275 276 276 276 276 277 278 279 280 280 281 282 283 284 284
268 269 267 266 266 265 266 266 264 264 263 262 264 265 265 265 266 267 267 268 267 266 267 269 267 265 266 267 267 268 269 268 269 269 270 271 273 274 275 274 273 275 275 273 273 272 270 271 271 271 272 273 274 275 275 276 275 275 275 275 275 275 274 272 271 272 273 272 273 275 275 274 276 278 278 278 279 278 277 277 277 278 279 280 281 282 282 283
268 269 268 268 268 268 269 269 269 267 264 263 264 264 264 265 265 266 268 269 269 267 266 267 268 267 267 267 267 267 268 269 270 270 271 273 273 274 274 273 272 275 275 274 273 270 269 272 273 272 274 275 274 275 276 276 276 276 274 274 275 275 274 273 273 273 273 272 274 276 275 274 276 278 277 278 279 278 277 278 279 279 280 280 281 281 281 281
269 269 270 270 269 269 270 269 269 269 266 264 264 264 265 266 266 267 267 267 267 268 267 267 268 269 269 268 267 267 268 269 270 271 272 273 273 272 273 272 272 274 275 273 271 270 270 273 275 276 277 276 275 276 276 276 276 276 276 275 275 275 275 275 275 275 274 274 275 275 275 275 276 276 276 278 279 279 278 278 279 279 279 280 281 281 280 280
269 270 270 271 270 269 269 269 269 268 267 265 265 266 266 266 267 268 268 267 267 267 267 268 270 271 270 269 268 268 269 270 270 270 270 270 270 270 271 272 274 275 274 271 270 270 271 274 277 278 277 276 277 277 278 278 278 276 276 276 275 275 276 275 275 275 274 275 276 276 275 275 277 278 277 277 279 279 277 276 277 277 279 280 280 280 280 280
270 270 270 270 270 269 269 270 269 267 267 267 268 268 267 267 269 269 268 268 268 267 268 269 270 271 270 269 268 268 269 269 268 268 269 268 267 268 268 269 270 271 271 271 271 271 272 274 276 277 277 277 277 278 280 281 279 275 275 277 277 277 277 276 275 277 277 275 275 274 273 274 276 278 278 278 279 279 277 274 274 277 279 280 279 279 279 279